Probability
0 0 0 0 0 0 0 0 0 0 0 0 0 0 0 0 0 0 0 0 0 0 0 0 0 0 0 0 0 0 0 0 0 0 0 0 0 0
0 0 0 0 0 0 0 0 0 0 0 0 0 0 0 0 0 0 0 0 0 0 0 0 0 0 0 0 0 0 0 0 0 0 0 0 0 0
0 0 0 0 0 0 0 0 0 0 0 0 0 0 0 0 0 0 0 0 0 0 0 0 0 0 0 0 0 0 0 0 0 0 0 0 0 0
0 0 0 0 0 0 0 0 0 0 0 0 0 0 0 0 0 0 0 0 0 0 0 0 0 0 0 0 0 0 0 0 0 0 0 0 0 0
0 0 0 0 0 0 0 0 0 0 0 0 0 0 0 0 0 0 0 0 0 0 0 0 0 0 0 0 0 0 0 0 0 0 0 0 0 0
0 0 0 0 0 0 0 0 0 0 0 0 0 0 0 0 0 0 0 0 0 0 0 0 0 0 0 0 0 0 0 0 0 0 0 0 0 0
0 0 0 0 0 0 0 0 0 0 0 0 0 0 0 0 0 0 0 0 0 0 0 0 0 0 0 0 0 0 0 0 0 0 0 0 0 0
0 0 0 0 0 0 0 0 0 0 0 0 0 0 0 0 0 0 0 0 0 0 0 0 0 0 0 0 0 0 0 0 0 0 0 0 0 0
0 0 0 0 0 0 0 0 0 0 0 0 0 0 0 0 0 0 0 0 0 0 0 0 0 0 0 0 0 0 0 0 0 0 0 0 0 0
0 0 0 0 0 0 0 0 0 0 0 0 0 0 0 0 0 0 0 0 0 0 0 0 0 0 0 0 0 0 0 0 0 0 0 0 0 0
0 0 0 0 0 0 0 0 0 0 0 0 0 0 0 0 0 0 0 0 0 0 0 0 0 0 0 0 0 0 0 0 0 0 0 0 0 0
0 0 0 0 0 0 0 0 0 0 0 0 0 0 0 0 0 0 0 0 0 0 0 0 0 0 0 0 0 0 0 0 0 0 0 0 0 0
0 0 0 0 0 0 0 0 0 0 0 0 0 0 0 0 0 0 0 0 0 0 0 0 0 0 0 0 0 0 0 0 0 0 0 0 0 0
0 0 0 0 0 0 0 0 0 0 0 0 0 0 0 0 0 0 0 0 0 0 0 0 0 0 0 0 0 0 0 0 0 0 0 0 0 0
0 0 0 0 0 0 0 0 0 0 0 0 0 0 0 0 0 0 0 0 0 0 0 0 0 0 0 0 0 0 0 0 0 0 0 0 0 0
0 0 0 0 0 0 0 0 0 0 0 0 0 0 0 0 0 0 0 0 0 0 0 0 0 0 0 0 0 0 0 0 0 0 0 0 0 0
0 0 0 0 0 0 0 0 0 0 0 0 0 0 0 0 0 0 0 0 0 0 0 0 0 0 0 0 0 0 0 0 0 0 0 0 0 0
0 0 0 0 0 0 0 0 0 0 0 0 0 0 0 0 0 0 0 0 0 0 0 0 0 0 0 0 0 0 0 0 0 0 0 0 0 0
0 0 0 0 0 0 0 0 0 0 0 0 0 0 0 0 0 0 0 0 0 0 0 0 0 0 0 0 0 0 0 0 0 0 0 0 0 0
0 0 0 0 0 0 0 0 0 0 0 0 0 0 0 0 0 0 0 0 0 0 0 0 0 0 0 0 0 0 0 0 0 0 0 0 0 0
0 0 0 0 0 0 0 0 0 0 0 0 0 0 0 0 0 0 0 0 0 0 0 0 0 0 0 0 0 0 0 0 0 0 0 0 0 0
0 0 0 0 0 0 0 0 0 0 0 0 0 0 0 0 0 0 0 0 0 0 0 0 0 0 0 0 0 0 0 0 0 0 0 0 0 0
0 0 0 0 0 0 0 0 0 0 0 0 0 0 0 0 0 0 0 0 0 0 0 0 0 0 0 0 0 0 0 0 0 0 0 0 0 0
Wind_Speed
2 2 2 1 2 2 2 3 3 3 3 4 2 1 1 2 3 3 3 6 7 8 9 9 10 10 11 11 11 11 10 9 8 7 6 6 5 5
1 2 1 1 1 1 2 2 3 3 2 2 2 2 2 2 4 3 3 6 7 7 8 9 9 9 10 11 11 11 10 10 9 8 8 7 7 7
1 1 1 0 1 1 1 1 2 2 3 2 2 2 2 3 2 2 3 3 3 6 7 7 7 7 8 9 9 9 9 9 9 9 8 7 7 7
1 1 1 0 0 0 0 1 1 1 2 3 2 2 2 3 3 3 2 2 2 4 5 6 6 6 6 7 7 7 8 8 8 8 7 7 7 6
1 1 1 1 0 0 0 0 0 0 1 3 3 2 2 2 3 2 2 2 2 3 4 5 4 5 5 6 6 6 6 6 6 6 6 6 6 5
1 1 1 1 1 1 0 0 0 1 2 3 3 2 2 2 3 2 1 1 2 3 3 3 4 4 4 4 4 4 4 4 5 5 5 4 4 4
2 1 1 2 2 2 1 1 1 2 2 3 3 2 2 2 2 2 2 1 1 2 2 2 2 2 3 3 3 3 3 3 3 3 3 3 3 4
2 2 2 3 3 4 4 3 3 3 3 3 2 3 3 3 2 2 3 2 1 1 1 1 1 1 1 2 3 2 2 2 2 3 3 3 3 3
3 2 1 2 4 4 5 7 5 3 3 4 4 4 4 4 5 3 2 2 2 1 1 0 1 1 2 3 3 1 1 2 2 2 2 3 3 4
3 3 3 2 2 4 4 4 4 4 3 2 3 3 3 4 4 4 4 3 2 1 1 1 1 1 2 2 4 1 2 2 2 3 3 4 4 4
2 3 3 2 5 6 4 4 3 3 5 7 7 7 8 8 7 4 3 3 1 0 1 1 0 1 2 2 3 4 3 3 4 4 4 4 5 4
2 2 5 5 5 6 4 4 3 1 2 3 5 6 4 4 6 4 4 3 2 2 1 1 1 1 1 2 2 2 3 4 5 5 6 5 6 2
3 2 3 7 6 6 6 4 5 4 3 3 3 2 2 2 2 2 2 3 3 2 2 2 1 1 1 2 2 1 1 1 2 3 5 7 6 4
4 3 4 7 7 6 5 6 7 6 3 3 2 2 2 1 1 2 2 2 2 3 3 3 2 3 2 1 3 2 2 2 1 2 2 5 6 8
4 7 8 9 7 5 6 7 5 4 3 2 2 2 2 2 2 2 1 2 1 0 2 3 3 3 3 3 3 2 3 2 2 2 2 2 3 3
4 6 9 8 5 5 5 4 3 4 4 3 3 2 2 2 2 2 2 1 0 1 1 3 4 4 3 4 4 4 3 3 2 2 3 4 4 4
4 2 2 2 3 2 2 2 3 3 4 3 3 3 3 3 3 2 2 2 2 2 1 1 3 4 5 4 4 6 5 5 5 4 3 4 4 5
7 4 4 5 5 5 5 4 4 4 4 4 4 4 4 4 3 3 3 3 3 3 3 2 2 1 2 5 10 7 5 5 4 4 4 4 6 4
7 5 5 6 6 5 5 5 5 5 4 5 5 5 4 4 4 4 4 4 4 4 4 3 3 3 3 4 4 7 5 3 3 3 4 5 6 6
6 6 7 6 6 6 6 6 5 5 5 5 5 5 5 5 5 5 5 5 5 4 4 4 5 6 6 4 4 4 7 6 4 4 4 4 6 10
7 7 6 6 6 6 6 6 6 6 6 6 6 6 6 6 6 6 6 9 7 5 6 6 6 8 4 2 5 5 4 9 9 5 4 4 6 5
7 7 7 7 6 6 6 6 6 6 7 7 7 6 6 6 7 7 7 6 7 6 7 4 3 3 4 6 8 7 5 5 8 14 15 12 5 4
7 7 7 7 7 6 6 7 8 7 7 7 7 7 7 7 7 7 7 7 6 7 6 5 4 5 6 7 8 8 8 7 5 6 8 13 18 22
Wind_Direction
213 209 216 227 229 232 228 216 217 226 214 173 165 140 115 94 89 67 54 58 60 58 56 53 52 53 55 56 56 56 57 58 60 63 64 67 74 73
212 206 211 222 232 236 233 233 222 219 210 144 146 148 132 119 108 79 67 66 61 67 68 63 60 59 60 60 57 55 55 57 60 62 64 67 67 68
211 201 216 226 244 261 249 230 219 200 195 130 115 124 123 129 104 79 66 50 43 62 68 69 66 66 64 60 56 54 52 51 53 55 56 56 58 58
209 184 206 94 1 333 284 242 220 195 163 154 139 138 136 148 127 108 76 58 41 54 65 67 70 70 67 62 57 53 53 50 50 51 50 49 48 44
157 169 178 155 203 287 307 275 245 136 129 138 138 127 119 138 120 96 79 41 34 43 55 59 67 68 64 60 55 54 55 54 52 50 48 43 37 32
101 114 135 159 185 187 168 177 129 118 115 120 122 119 118 121 120 123 100 47 25 18 29 41 47 52 56 57 54 58 56 52 48 44 41 39 32 23
91 83 92 117 139 149 147 163 151 142 133 129 131 128 141 147 160 149 135 96 22 18 9 9 21 22 18 22 36 52 51 45 38 32 28 32 31 19
137 103 81 75 87 89 95 115 151 161 166 155 154 161 169 160 137 136 128 132 228 315 60 352 26 11 337 330 342 15 34 39 29 26 23 23 15 359
156 148 128 104 84 73 70 61 55 80 156 160 159 171 165 168 148 137 144 153 189 226 108 262 356 314 304 322 326 359 44 35 21 17 8 357 345 334
165 161 152 141 139 123 99 74 54 42 69 106 142 154 154 149 151 152 149 124 89 27 83 170 310 300 320 326 328 29 43 16 359 347 340 336 331 328
168 169 168 178 179 153 129 114 85 50 73 103 115 126 134 141 138 118 123 118 140 237 22 132 226 319 317 314 333 359 2 354 350 343 332 327 323 331
172 186 193 194 198 176 154 151 151 146 94 84 80 78 80 110 131 136 146 138 149 207 232 122 106 36 322 306 318 341 357 353 355 348 335 320 313 325
186 197 219 210 208 197 181 179 192 169 145 127 112 93 78 77 84 103 130 144 153 201 184 128 133 115 184 295 307 306 320 319 332 331 332 324 315 309
196 201 216 218 214 209 198 198 193 162 139 141 145 156 155 154 141 128 126 126 150 180 176 147 158 169 160 272 286 306 299 277 275 288 301 318 320 313
201 208 213 219 217 215 213 204 183 152 155 171 186 193 191 175 147 127 105 95 71 163 179 175 172 176 181 210 253 281 305 292 265 266 283 290 286 291
200 216 218 219 210 207 218 215 178 176 179 189 193 184 158 155 167 163 160 152 163 292 249 200 193 186 208 226 236 256 248 270 283 272 283 280 268 256
172 170 178 186 199 199 204 206 196 195 204 184 182 182 184 184 188 175 170 168 185 208 237 237 220 215 220 220 243 249 251 253 258 270 278 282 267 251
195 196 204 208 213 215 215 214 210 210 207 198 195 196 197 197 198 188 185 191 210 221 222 218 209 232 268 256 231 243 247 251 253 251 244 269 279 257
212 210 212 213 217 218 216 215 217 212 202 202 204 203 201 200 198 202 204 211 222 227 223 209 201 202 237 273 271 221 215 234 246 252 244 247 270 278
212 214 216 215 216 217 217 218 218 211 205 209 208 205 202 201 205 210 210 215 223 225 228 217 212 212 220 232 254 259 224 224 236 256 265 264 267 275
218 219 218 216 216 217 217 216 214 214 210 207 211 209 205 205 213 215 216 228 227 227 233 232 227 230 223 220 253 256 239 236 236 237 249 275 284 275
224 225 224 222 219 218 217 215 216 218 215 214 214 212 208 207 215 217 216 220 225 229 237 237 209 207 205 230 251 262 265 254 254 259 258 249 248 254
227 227 227 224 223 221 219 218 218 221 219 216 215 213 210 212 216 217 218 221 225 229 233 233 217 214 226 235 250 261 267 269 269 267 260 256 256 258